Weather History for North Island, CA

Change the Weather History Date:

Wednesday, November 27, 2013

  Actual Average Record
Temperature  
Mean Temperature 67 °F -  
Max Temperature 77 °F 63 °F 86 °F (2014)
Min Temperature 57 °F 48 °F 45 °F (2010)
Cooling Degree Days 2    
Growing Degree Days 17 (Base 50)    
Moisture  
Dew Point 52 °F    
Average Humidity 65    
Maximum Humidity 81    
Minimum Humidity 36    
Precipitation  
Precipitation 0.00 in - - ()
Sea Level Pressure  
Sea Level Pressure 29.95 in    
Wind  
Wind Speed 3 mph (WSW)    
Max Wind Speed 10 mph    
Max Gust Speed -    
Visibility 10 miles    
Events      
Averages and records for this station are not official NWS values.
T = Trace of Precipitation, MM = Missing Value Source: NWS Daily Summary

Daily Weather History Graph

Daily Weather History Graph

Search for Another Location

Airport:

Trip Planner

Search our weather history database for the weather conditions in past years. The results will help you decide how hot, cold, wet, or windy it might be!

Date:

Astronomy

Nov. 27, 2013 Rise Set
Actual Time 6:29 AM PST 4:43 PM PST
Civil Twilight 6:03 AM PST 5:09 PM PST
Nautical Twilight 5:32 AM PST 5:40 PM PST
Astronomical Twilight 5:03 AM PST 6:09 PM PST
Moon 12:53 AM PST (11/27) 1:07 PM PST (11/27)
Length of Visible Light 11h 06m
Length of Day
10h 13m
Waning Crescent, 30% of the Moon is Illuminated
Nov 27
Waning Crescent
Dec 2
New
Dec 9
First Quarter
Dec 17
Full
Dec 25
Last Quarter

Hourly Weather History & Observations

Time (PST) Temp. Dew Point Humidity Pressure Visibility Wind Dir Wind Speed Gust Speed Precip Events Conditions
12:52 AM 62.1 °F 53.1 °F 72% 30.03 in 9.0 mi NW 5.8 mph - N/A   Mostly Cloudy
1:52 AM 61.0 °F 50.0 °F 67% 30.01 in 10.0 mi North 3.5 mph - N/A   Mostly Cloudy
2:52 AM 60.1 °F 51.1 °F 72% 30.01 in 9.0 mi Calm Calm - N/A   Mostly Cloudy
3:52 AM 61.0 °F 50.0 °F 67% 29.99 in 10.0 mi Calm Calm - N/A   Mostly Cloudy
4:52 AM 60.1 °F 51.1 °F 72% 29.99 in 10.0 mi West 3.5 mph - N/A   Mostly Cloudy
5:52 AM 57.0 °F 48.9 °F 74% 29.99 in 10.0 mi Calm Calm - N/A   Mostly Cloudy
6:52 AM 60.1 °F 51.1 °F 72% 29.99 in 10.0 mi Calm Calm - N/A   Mostly Cloudy
7:52 AM 61.0 °F 52.0 °F 72% 29.99 in 9.0 mi Calm Calm - N/A   Mostly Cloudy
8:52 AM 64.9 °F 52.0 °F 63% 29.99 in 10.0 mi Calm Calm - N/A   Mostly Cloudy
9:52 AM 72.0 °F 55.0 °F 55% 29.99 in 10.0 mi Calm Calm - N/A   Mostly Cloudy
10:52 AM 77.0 °F 48.0 °F 36% 29.96 in 10.0 mi SSW 4.6 mph - N/A   Mostly Cloudy
11:52 AM 72.0 °F 52.0 °F 49% 29.93 in 10.0 mi West 9.2 mph - N/A   Mostly Cloudy
12:52 PM 73.9 °F 53.1 °F 48% 29.90 in 10.0 mi West 5.8 mph - N/A   Scattered Clouds
1:52 PM 73.9 °F 50.0 °F 43% 29.89 in 10.0 mi West 8.1 mph - N/A   Scattered Clouds
2:52 PM 73.0 °F 46.9 °F 39% 29.89 in 10.0 mi WSW 10.4 mph - N/A   Partly Cloudy
3:52 PM 71.1 °F 52.0 °F 51% 29.90 in 10.0 mi South 4.6 mph - N/A   Partly Cloudy
4:52 PM 64.9 °F 57.0 °F 75% 29.90 in 10.0 mi SE 5.8 mph - N/A   Partly Cloudy
5:52 PM 63.0 °F 55.9 °F 78% 29.91 in 10.0 mi Calm Calm - N/A   Partly Cloudy
6:52 PM 63.0 °F 57.0 °F 81% 29.92 in 10.0 mi Calm Calm - N/A   Clear
7:52 PM 62.1 °F 54.0 °F 75% 29.92 in 10.0 mi Calm Calm - N/A   Clear
8:52 PM 62.1 °F 53.1 °F 72% 29.92 in 10.0 mi Calm Calm - N/A   Clear
9:52 PM 60.1 °F 53.1 °F 78% 29.91 in 10.0 mi Calm Calm - N/A   Scattered Clouds
10:52 PM 59.0 °F 52.0 °F 78% 29.91 in 10.0 mi Calm Calm - N/A   Partly Cloudy
11:52 PM 57.9 °F 51.1 °F 78% 29.91 in 10.0 mi Calm Calm - N/A   Clear